Home   Weather   Rendsburg   Past weeks

Flag for Germany Past Weather in Rendsburg, Schleswig-Holstein, Germany — Yesterday and Last 2 Weeks

Now
72 °F

Scattered clouds.


Feels Like: 77 °F
Forecast: 49 / 66 °F
Wind: 7 mph from Southeast

Location: Hohn

Current Time: Sep 25, 2016 at 5:50:15 PM

Latest Report: Sep 25, 2016 at 4:20 PM


Visibility: N/A

Pressure: 30.04 "Hg

Humidity: 47%

Dew Point: 50 °F

Location of RendsburgLocation

Past Weather in Rendsburg — Graph

°F

Rendsburg Temperature Yesterday

Maximum temperature yesterday: 66 °F (at 3:20 PM)
Minimum temperature yesterday: 45 °F (at 3:20 AM)
Average temperature yesterday: 55 °F

High & Low Weather Summary for the Past Weeks

 TemperatureHumidityPressure
High86 °F (Sep 13, 3:20 PM)100% (Sep 11, 12:50 AM)30.24 "Hg (Sep 11, 12:50 AM)
Low45 °F (Sep 24, 3:20 AM)38% (Sep 13, 4:20 PM)29.89 "Hg (Sep 16, 6:20 AM)
Average62 °F80%30.08 "Hg
* Reported Sep 10 4:20 PM — Sep 25 4:20 PM, Rendsburg, Weather by CustomWeather, © 2016

Note: Actual official high and low records may vary slightly from our data, if they occured in-between our weather recording intervals... More about our weather records

Advertising

Rendsburg Weather History for the Previous 24 Hours

Scroll right to see more
 ConditionsComfort  
Time TempWeatherWind HumidityBarometerVisibility
4:20 PM
Sun, Sep 25
72 °FScattered clouds.7 mph47%30.04 "HgN/A
3:20 PM72 °FScattered clouds.9 mph47%30.04 "HgN/A
2:20 PM72 °FScattered clouds.12 mph50%30.04 "HgN/A
1:20 PM70 °FScattered clouds.12 mph57%30.07 "HgN/A
12:20 PM68 °FPassing clouds.9 mph60%30.07 "HgN/A
11:20 AM64 °FPassing clouds.8 mph68%30.09 "HgN/A
10:20 AM61 °FPassing clouds.7 mph72%30.09 "HgN/A
9:20 AM55 °FScattered clouds.3 mph82%30.09 "HgN/A
8:20 AM52 °FScattered clouds.5 mph88%30.09 "HgN/A
7:20 AM50 °FScattered clouds.3 mph88%30.12 "HgN/A
6:20 AM50 °FCool.5 mph88%30.12 "Hg4 mi
5:20 AM50 °FCool.3 mph88%30.12 "Hg4 mi
4:20 AM52 °FCool.3 mph88%30.15 "Hg4 mi
3:20 AM52 °FCool.3 mph88%30.15 "Hg4 mi
2:20 AM54 °FCool.5 mph88%30.15 "Hg4 mi
1:20 AM54 °FCool.3 mph88%30.15 "Hg4 mi
12:20 AM52 °FCool.3 mph94%30.15 "Hg4 mi
11:20 PM
Sat, Sep 24
50 °FCool.2 mph94%30.18 "Hg4 mi
10:20 PM52 °FCool.2 mph94%30.18 "Hg4 mi
9:20 PM55 °FCool.2 mph88%30.18 "Hg4 mi
8:20 PM57 °FCool.1 mph82%30.15 "Hg4 mi
7:20 PM59 °FPassing clouds.2 mph82%30.18 "HgN/A
6:20 PM63 °FScattered clouds.2 mph73%30.18 "HgN/A
5:20 PM66 °FScattered clouds.5 mph60%30.18 "HgN/A
Weather by CustomWeather, © 2016

See weather overviewHow to use our weather pages